Hourly Data Report for August 21, 2009

All times are specified in Local Standard Time (LST). Add 1 hour to adjust for Daylight Saving Time where and when it is observed.

EMERSON AUT
MANITOBA

49°00'00.000" N
97°14'15.000" W
242.00 m
5020882
71560
WEX

Download Data

Hourly Data (August 2009)
Hourly Data Report for August 21, 2009
Temp Definition
°C
Dew Point Temp Definition
°C
Rel Hum Definition
%
Wind Dir Definition
10's deg

Wind Spd Definition
km/h
Visibility Definition
km
Stn Press Definition
kPa
Hmdx Definition


Wind Chill Definition


Weather Definition


TIME
00:00 13.5 12.9 96 34 20   98.29     LegendNANA
01:00 13.2 12.2 94 34 22   98.32     LegendNANA
02:00 12.7 11.7 94 34 22   98.35     LegendNANA
03:00 12.9 11.9 94 33 20   98.40     LegendNANA
04:00 13.2 12.0 92 32 22   98.43     LegendNANA
05:00 13.4 12.1 92 33 22   98.48     LegendNANA
06:00 13.6 12.3 92 33 24   98.52     LegendNANA
07:00 13.7 12.6 93 34 22   98.59     LegendNANA
08:00 14.0 12.8 92 34 28   98.65     LegendNANA
09:00 14.6 13.1 91 34 26   98.68     LegendNANA
10:00 15.2 13.4 89 34 22   98.71     LegendNANA
11:00 15.9 14.0 88 34 22   98.77     LegendNANA
12:00 16.5 13.9 85 34 24   98.80     LegendNANA
13:00 16.8 14.3 85 33 24   98.84     LegendNANA
14:00 17.1 14.0 82 35 22   98.83     LegendNANA
15:00 17.2 13.9 81 34 20   98.86     LegendNANA
16:00 16.7 14.2 85 33 20   98.86     LegendNANA
17:00 17.1 14.3 84 32 17   98.86     LegendNANA
18:00 17.2 14.1 82 33 15   98.87     LegendNANA
19:00 16.0 14.1 88 31 11   98.87     LegendNANA
20:00 13.7 12.6 93 30 9   98.87     LegendNANA
21:00 13.1 12.5 96   0   98.90     LegendNANA
22:00 11.4 10.9 97 28 4   98.92     LegendNANA
23:00 10.6 10.3 98 32 6   98.92     LegendNANA

Notes on Data Quality.

Legend

  • E = Estimated
  • M = Missing
  • NA = Not Available
  • ‡ = Partner data that is not subject to review by the National Climate Archives
Date modified: